Location: Unspecified
(0.0000°N, 0.0000°E)
Time: 05:45:39
(UTC+00:00)

STARS - Pass Details

Date: 12 December 2017
Orbit: 624 x 642 km, 98.3° (Epoch: 25 April)

Event Time Altitude Azimuth Distance (km) Brightness Sun altitude
Rises 05:19:28 0° 160° (SSE) 2,946 ? -7.9°
Reaches altitude 10° 05:21:43 10° 155° (SSE) 2,034 ? -7.3°
Maximum altitude 05:26:03 54° 78° (ENE) 774 ? -6.4°
Drops below altitude 10° 05:30:21 10° 1° (N) 2,018 ? -5.4°
Sets 05:32:34 0° 356° (N) 2,921 ? -4.9°
